CW7668 Weather Reports


time (UTC)temp
C
wind
direction
speed
KPH
gust
KPH
rain 1hr
cm
rain 24hr
cm
rain mn
cm
humidity
%
barometer
mb
20260506035720 25 130 3.2 12.9 0.00 0.00 0.00 93 1009.0
20260506035214 25 132 3.2 12.9 0.00 0.00 0.00 93 1009.0
20260506034708 25 148 1.6 11.3 0.00 0.00 0.00 93 1009.0
20260506034202 25 88 1.6 8.0 0.00 0.00 0.00 93 1009.0
20260506033656 25 146 1.6 8.0 0.00 0.00 0.00 93 1009.1
20260506033150 25 132 3.2 16.1 0.00 0.00 0.00 93 1008.8
20260506032644 25 152 3.2 16.1 0.00 0.00 0.00 93 1008.6
20260506032138 25 130 3.2 11.3 0.00 0.00 0.00 93 1008.5
20260506031631 25 148 3.2 14.5 0.00 0.00 0.00 93 1008.4
20260506031126 25 148 3.2 14.5 0.00 0.00 0.00 93 1008.4
20260506030619 25 145 4.8 16.1 0.00 0.00 0.00 93 1008.4
20260506030114 25 146 4.8 16.1 0.00 0.00 0.00 92 1008.2
20260506025607 25 148 3.2 12.9 0.00 0.00 0.00 92 1008.3
20260506025102 25 115 3.2 12.9 0.00 0.00 0.00 92 1008.2
20260506024555 25 167 3.2 16.1 0.00 0.00 0.00 92 1008.2
20260506024322 25 177 3.2 16.1 0.00 0.00 0.00 92 1008.2
20260506023544 25 191 4.8 16.1 0.00 0.00 0.00 91 1008.0
20260506023037 25 148 4.8 16.1 0.00 0.00 0.00 91 1008.1
20260506022531 25 138 4.8 17.7 0.00 0.00 0.00 91 1007.9
20260506022025 25 140 3.2 17.7 0.00 0.00 0.00 91 1007.9
20260506021524 25 115 3.2 16.1 0.00 0.00 0.00 91 1007.8
20260506021024 25 140 3.2 16.1 0.00 0.00 0.00 91 1007.8
20260506020524 25 146 3.2 11.3 0.00 0.00 0.00 90 1007.7
20260506020254 26 94 1.6 11.3 0.00 0.00 0.00 90 1007.7
20260506015521 26 148 3.2 11.3 0.00 0.00 0.00 90 1007.7
20260506015020 26 154 3.2 11.3 0.00 0.00 0.00 90 1007.7
20260506014520 26 161 3.2 12.9 0.00 0.00 0.00 90 1007.5
20260506014019 26 142 3.2 12.9 0.00 0.00 0.00 89 1007.4
20260506013520 26 173 3.2 11.3 0.00 0.00 0.00 89 1007.4
20260506013018 26 142 1.6 11.3 0.00 0.00 0.00 89 1007.4
20260506012519 26 165 3.2 12.9 0.00 0.00 0.00 89 1007.5
20260506012018 26 147 3.2 12.9 0.00 0.00 0.00 89 1007.6
20260506011516 26 159 4.8 19.3 0.00 0.00 0.00 88 1007.1
20260506011013 26 130 4.8 19.3 0.00 0.00 0.00 88 1007.0
20260506010745 26 156 3.2 14.5 0.00 0.00 0.00 88 1007.0
20260506010014 26 186 4.8 14.5 0.00 0.00 0.00 88 1007.0
20260506005745 26 144 4.8 17.7 0.00 0.00 0.00 88 1006.9
20260506005008 26 159 6.4 17.7 0.00 0.00 0.00 87 1006.9
20260506004502 26 150 3.2 14.5 0.00 0.00 0.00 87 1006.9
20260506003956 26 141 1.6 12.9 0.00 0.00 0.00 87 1006.9
20260506003453 26 148 3.2 12.9 0.00 0.00 0.00 87 1006.9
20260506002953 26 136 1.6 12.9 0.00 0.00 0.00 87 1006.8
20260506002452 26 126 3.2 14.5 0.00 0.00 0.00 87 1006.7
20260506002226 26 155 4.8 17.7 0.00 0.00 0.00 87 1006.7
20260506001453 26 140 4.8 17.7 0.00 0.00 0.00 86 1006.7
20260506000953 26 179 4.8 17.7 0.00 0.00 0.00 86 1006.8
20260506000453 26 161 4.8 19.3 0.00 0.00 0.00 86 1006.8
20260505235954 26 134 4.8 19.3 0.00 0.00 0.00 86 1006.9
20260505235726 26 153 4.8 19.3 0.00 0.00 0.00 87 1006.8
20260505234954 26 138 3.2 16.1 0.00 0.00 0.00 86 1006.7
20260505234455 27 199 4.8 19.3 0.00 0.00 0.00 86 1006.8
20260505233950 27 133 4.8 19.3 0.00 0.00 0.00 86 1006.7
20260505233450 27 134 4.8 20.9 0.00 0.00 0.00 86 1006.7
20260505232950 27 148 4.8 20.9 0.00 0.00 0.00 85 1006.7
20260505232449 27 160 4.8 17.7 0.00 0.00 0.00 85 1006.7
20260505231948 27 171 4.8 16.1 0.00 0.00 0.00 84 1006.8
20260505231449 27 191 3.2 14.5 0.00 0.00 0.00 85 1006.7
20260505230948 27 154 3.2 14.5 0.00 0.00 0.00 85 1006.6
20260505230449 27 179 4.8 17.7 0.00 0.00 0.00 86 1006.6
20260505225950 27 178 4.8 17.7 0.00 0.00 0.00 85 1006.7
20260505225445 27 155 3.2 14.5 0.00 0.00 0.00 85 1006.8
20260505224945 28 132 3.2 14.5 0.00 0.00 0.00 84 1006.7
20260505224718 28 150 3.2 16.1 0.00 0.00 0.00 84 1006.7
20260505223944 28 161 4.8 19.3 0.00 0.00 0.00 84 1006.7
20260505223445 28 136 4.8 19.3 0.00 0.00 0.00 82 1006.8
20260505222946 28 194 3.2 12.9 0.00 0.00 0.00 82 1006.7
20260505222444 28 148 3.2 12.9 0.00 0.00 0.00 82 1006.7
20260505221945 28 213 4.8 17.7 0.00 0.00 0.00 82 1006.9
20260505221446 28 159 4.8 20.9 0.00 0.00 0.00 82 1006.9
20260505220942 28 132 6.4 20.9 0.00 0.00 0.00 83 1006.9
20260505220442 28 219 4.8 24.1 0.00 0.00 0.00 83 1006.8
20260505215942 28 130 3.2 24.1 0.00 0.00 0.00 82 1006.9
20260505215440 28 215 3.2 11.3 0.00 0.00 0.00 83 1006.9
20260505214940 28 163 4.8 19.3 0.00 0.00 0.00 83 1007.1
20260505214440 28 150 4.8 19.3 0.00 0.00 0.00 83 1007.1
20260505213940 28 159 4.8 16.1 0.00 0.00 0.00 83 1007.2
20260505213713 28 163 4.8 16.1 0.00 0.00 0.00 82 1007.1
20260505212942 28 148 4.8 22.5 0.00 0.00 0.00 82 1007.2
20260505212713 28 194 4.8 22.5 0.00 0.00 0.00 83 1007.2
20260505211940 28 140 3.2 19.3 0.00 0.00 0.00 82 1007.3
20260505211440 28 197 3.2 19.3 0.00 0.00 0.00 83 1007.3
20260505210940 28 171 3.2 16.1 0.00 0.00 0.00 83 1007.4
20260505210712 28 197 4.8 16.1 0.00 0.00 0.00 83 1007.5
20260505210210 28 159 4.8 19.3 0.00 0.00 0.00 83 1007.5
20260505205438 28 168 4.8 19.3 0.00 0.00 0.00 83 1007.6
20260505204938 28 162 3.2 19.3 0.00 0.00 0.00 83 1007.6
20260505204437 28 180 3.2 12.9 0.00 0.00 0.00 83 1007.7
20260505203937 28 202 3.2 12.9 0.00 0.00 0.00 82 1007.9
20260505203436 28 201 3.2 19.3 0.00 0.00 0.00 82 1007.9
20260505202936 28 178 3.2 19.3 0.00 0.00 0.00 81 1007.8
20260505202438 28 175 3.2 16.1 0.00 0.00 0.00 82 1007.9
20260505202210 28 190 3.2 14.5 0.00 0.00 0.00 82 1008.1
20260505201430 28 211 3.2 14.5 0.00 0.00 0.00 83 1008.0
20260505200923 28 190 3.2 14.5 0.00 0.00 0.00 83 1008.1
20260505200417 28 195 4.8 19.3 0.00 0.00 0.00 83 1008.2
20260505195911 28 179 4.8 19.3 0.00 0.00 0.00 82 1008.3
20260505195636 28 184 3.2 16.1 0.00 0.00 0.00 83 1008.3
20260505194859 28 213 4.8 17.7 0.00 0.00 0.00 84 1008.4
20260505194357 28 187 4.8 17.7 0.00 0.00 0.00 85 1008.6
20260505194352 28 103 4.8 17.7 0.00 0.00 0.00 84 1008.6
20260505193350 27 168 3.2 12.9 0.00 0.00 0.00 85 1008.5
20260505192849 27 159 3.2 14.5 0.00 0.00 0.00 86 1008.6
20260505192349 27 209 3.2 17.7 0.00 0.00 0.00 85 1008.7
20260505191849 27 139 3.2 17.7 0.00 0.00 0.00 84 1008.6
20260505191348 28 155 3.2 16.1 0.00 0.00 0.00 84 1008.7
20260505190847 27 152 3.2 16.1 0.00 0.00 0.00 84 1008.8
20260505190346 27 155 3.2 11.3 0.00 0.00 0.00 84 1008.8
20260505185846 27 189 4.8 16.1 0.00 0.00 0.00 83 1008.7
20260505185344 27 203 4.8 16.1 0.00 0.00 0.00 84 1008.7
20260505184844 27 217 3.2 16.1 0.00 0.00 0.00 84 1008.7
20260505184344 27 204 3.2 20.9 0.00 0.00 0.00 85 1008.9
20260505183844 27 215 4.8 20.9 0.00 0.00 0.00 85 1008.9
20260505183345 27 170 4.8 12.9 0.00 0.00 0.00 85 1009.0
20260505182846 27 171 4.8 12.9 0.00 0.00 0.00 86 1009.0
20260505182344 27 201 3.2 11.3 0.00 0.00 0.00 86 1008.9
20260505181843 27 175 3.2 9.7 0.00 0.00 0.00 86 1009.0
20260505181344 27 161 3.2 11.3 0.00 0.00 0.00 86 1009.1
20260505180837 27 151 3.2 11.3 0.00 0.00 0.00 86 1009.1
20260505180330 27 202 3.2 12.9 0.00 0.00 0.00 87 1009.2
20260505175824 27 199 3.2 12.9 0.00 0.00 0.00 88 1009.4
20260505175318 26 196 3.2 14.5 0.00 0.00 0.00 88 1009.5
20260505174812 26 202 3.2 14.5 0.00 0.00 0.00 87 1009.4
20260505174306 26 218 3.2 9.7 0.00 0.00 0.00 87 1009.4
20260505174031 26 192 3.2 11.3 0.00 0.00 0.00 89 1009.4
20260505173526 26 206 3.2 11.3 0.00 0.00 0.00 89 1009.5
20260505172748 26 181 3.2 11.3 0.00 0.00 0.00 89 1009.6
20260505172242 26 175 3.2 12.9 0.00 0.00 0.00 89 1009.5
20260505171735 26 210 3.2 14.5 0.00 0.00 0.00 88 1009.5
20260505171230 26 208 1.6 14.5 0.00 0.00 0.00 89 1009.4
20260505170724 26 158 1.6 12.9 0.00 0.00 0.00 89 1009.3
20260505170450 26 197 3.2 12.9 0.00 0.00 0.00 89 1009.5
20260505165712 26 173 4.8 12.9 0.00 0.00 0.00 90 1009.6
20260505165209 26 138 3.2 14.5 0.00 0.00 0.00 90 1009.5
20260505165203 25 184 3.2 17.7 0.00 0.00 0.00 90 1009.5
20260505164154 25 190 3.2 17.7 0.00 0.00 0.00 90 1009.6
20260505163648 25 191 3.2 17.7 0.00 0.00 0.00 90 1009.6
20260505163143 26 198 3.2 16.1 0.00 0.00 0.00 89 1009.5
20260505162636 26 163 3.2 16.1 0.00 0.00 0.00 89 1009.5
20260505162130 26 185 3.2 12.9 0.00 0.00 0.00 90 1009.4
20260505161626 26 159 3.2 12.9 0.00 0.00 0.00 90 1009.4
20260505161620 25 175 3.2 12.9 0.00 0.00 0.00 92 1009.5
20260505160845 25 183 3.2 16.1 0.00 0.00 0.00 91 1009.4
20260505160106 25 216 3.2 16.1 0.00 0.00 0.00 92 1009.3
20260505153302 25 160 3.2 11.3 0.00 0.00 0.00 93 1009.1
20260505152524 25 199 3.2 11.3 0.00 0.00 0.00 94 1009.2
20260505152251 24 198 1.6 11.3 0.00 0.00 0.00 95 1009.3
20260505151512 24 166 3.2 17.7 0.00 0.00 0.00 94 1009.3
20260505151006 24 165 3.2 17.7 0.00 0.00 0.00 94 1009.2
20260505150500 24 153 4.8 16.1 0.00 0.00 0.00 94 1009.2
20260505140348 23 176 4.8 17.7 0.00 0.00 0.00 95 1008.8
20260505140114 23 132 4.8 17.7 0.00 0.00 0.00 95 1008.8
20260505130306 22 155 3.2 11.3 0.00 0.00 0.00 96 1008.8
20260505125038 22 146 3.2 8.0 0.00 0.00 0.00 97 1009.0
20260505124536 22 138 3.2 8.0 0.00 0.00 0.00 97 1008.9
20260505123803 22 136 3.2 12.9 0.00 0.00 0.00 97 1008.7
20260505123301 21 141 1.6 12.9 0.00 0.00 0.00 97 1008.7
20260505122759 21 140 1.6 11.3 0.00 0.00 0.00 97 1008.8
20260505122258 21 138 1.6 11.3 0.00 0.00 0.00 97 1008.7
20260505121758 21 155 1.6 8.0 0.00 0.00 0.00 97 1008.6
20260505121259 21 155 1.6 8.0 0.00 0.00 0.00 97 1008.4
20260505120801 21 159 1.6 8.0 0.00 0.00 0.00 97 1008.6
20260505120258 21 140 1.6 8.0 0.00 0.00 0.00 97 1008.4
20260505115759 21 123 3.2 9.7 0.00 0.00 0.00 97 1008.4
20260505115530 21 134 3.2 9.7 0.00 0.00 0.00 97 1008.4
20260505114758 21 132 4.8 9.7 0.00 0.00 0.00 97 1008.2
20260505114529 21 144 3.2 8.0 0.00 0.00 0.00 97 1008.2
20260505113758 21 146 1.6 8.0 0.00 0.00 0.00 97 1008.3
20260505113528 21 146 1.6 11.3 0.00 0.00 0.00 97 1008.5
20260505112758 21 156 1.6 11.3 0.00 0.00 0.00 97 1008.5
20260505112259 21 146 1.6 8.0 0.00 0.00 0.00 97 1008.4
20260505111753 21 155 0.0 4.8 0.00 0.00 0.00 97 1008.5
20260505111525 21 155 0.0 4.8 0.00 0.00 0.00 97 1008.3
20260505110753 21 155 1.6 9.7 0.00 0.00 0.00 97 1008.2
20260505110524 21 156 1.6 9.7 0.00 0.00 0.00 97 1008.2
20260505101750 21 147 1.6 11.3 0.00 0.00 0.00 96 1008.4
20260505101520 21 147 1.6 11.3 0.00 0.00 0.00 96 1008.3
20260505100749 21 149 3.2 11.3 0.00 0.00 0.00 96 1008.3
20260505100251 21 149 1.6 11.3 0.00 0.00 0.00 96 1008.3
20260505095750 21 154 1.6 8.0 0.00 0.00 0.00 96 1008.4
20260505095250 21 146 1.6 8.0 0.00 0.00 0.00 96 1008.6
20260505095021 21 145 1.6 8.0 0.00 0.00 0.00 96 1008.6
20260505094520 21 140 3.2 11.3 0.00 0.00 0.00 96 1008.6
20260505093749 21 148 3.2 11.3 0.00 0.00 0.00 96 1008.4
20260505093249 21 136 1.6 9.7 0.00 0.00 0.00 96 1008.3
20260505092751 21 134 1.6 8.0 0.00 0.00 0.00 96 1008.5
20260505092249 21 147 1.6 8.0 0.00 0.00 0.00 96 1008.6
20260505091750 20 150 1.6 9.7 0.00 0.00 0.00 96 1008.7
20260505091520 20 151 1.6 9.7 0.00 0.00 0.00 96 1008.7
20260505090748 20 147 0.0 8.0 0.00 0.00 0.00 96 1008.8
20260505090243 20 146 0.0 3.2 0.00 0.00 0.00 96 1008.9
20260505090006 20 146 1.6 9.7 0.00 0.00 0.00 96 1008.9
20260505085229 20 146 1.6 9.7 0.00 0.00 0.00 95 1008.9
20260505084731 20 160 1.6 6.4 0.00 0.00 0.00 95 1008.8
20260505084227 20 174 1.6 8.0 0.00 0.00 0.00 96 1008.8
20260505083959 20 145 1.6 9.7 0.00 0.00 0.00 96 1009.0
20260505083227 20 150 1.6 9.7 0.00 0.00 0.00 95 1009.0
20260505082727 20 182 1.6 8.0 0.00 0.00 0.00 95 1009.0
20260505082230 20 155 0.0 4.8 0.00 0.00 0.00 95 1009.2
20260505081728 20 157 1.6 8.0 0.00 0.00 0.00 95 1009.2
20260505081458 20 148 1.6 8.0 0.00 0.00 0.00 95 1009.2